FW7500 Weather Reports


time (UTC)temp
C
wind
direction
speed
KPH
gust
KPH
rain 1hr
cm
rain 24hr
cm
rain mn
cm
humidity
%
barometer
mb
20260505073049 17 360 14.5 27.4 0.00 0.03 0.00 61 1007.9
20260505071554 17 360 11.3 25.7 0.00 0.03 0.00 61 1007.9
20260505070052 17 360 12.9 25.7 0.00 0.03 0.00 61 1008.2
20260505064546 17 360 12.9 24.1 0.00 0.03 0.00 61 1008.3
20260505063051 17 360 16.1 24.1 0.00 0.03 0.00 61 1008.2
20260505061546 17 360 11.3 24.1 0.00 0.03 0.00 62 1008.1
20260505060048 17 360 12.9 27.4 0.00 0.03 0.00 62 1008.0
20260505054549 17 360 11.3 22.5 0.00 0.03 0.00 64 1007.9
20260505053049 17 360 11.3 20.9 0.00 0.03 0.00 64 1008.0
20260505051549 17 360 8.0 17.7 0.00 0.03 0.00 64 1008.0
20260505041549 18 360 11.3 19.3 0.00 0.03 0.00 63 1008.2
20260505040050 18 360 8.0 16.1 0.00 0.03 0.00 64 1008.5
20260505034552 18 360 9.7 19.3 0.00 0.03 0.03 64 1008.5
20260505033053 18 360 8.0 16.1 0.00 0.03 0.03 64 1008.2
20260505031552 18 360 8.0 14.5 0.00 0.03 0.03 65 1008.2
20260505030049 18 360 6.4 9.7 0.00 0.03 0.03 65 1008.1
20260505024555 18 360 6.4 11.3 0.00 0.03 0.03 64 1008.0
20260505023052 18 360 4.8 8.0 0.00 0.03 0.03 63 1007.9
20260505021546 18 360 4.8 9.7 0.00 0.03 0.03 62 1007.5
20260505020051 19 360 6.4 12.9 0.00 0.03 0.03 61 1007.2
20260505014552 19 360 4.8 11.3 0.00 0.03 0.03 59 1007.0
20260505013056 20 360 4.8 12.9 0.00 0.03 0.03 58 1007.0
20260505011553 20 360 4.8 9.7 0.00 0.03 0.03 56 1006.8
20260505010109 20 201 4.8 9.7 0.00 0.03 0.03 55 1006.9
20260505004547 21 360 4.8 9.7 0.00 0.03 0.03 54 1006.8
20260505003053 21 360 6.4 12.9 0.00 0.03 0.03 54 1007.0
20260505001549 21 360 6.4 17.7 0.00 0.03 0.03 53 1007.1
20260505000050 22 360 6.4 12.9 0.00 0.03 0.03 53 1007.2
20260504234552 22 360 8.0 14.5 0.00 0.03 0.03 50 1007.2
20260504233052 22 360 8.0 19.3 0.00 0.03 0.03 49 1007.3
20260504231557 23 264 14.5 25.7 0.00 0.03 0.03 47 1007.6
20260504230052 23 360 14.5 25.7 0.00 0.03 0.03 45 1007.7
20260504224549 23 360 14.5 22.5 0.00 0.03 0.03 46 1007.8
20260504223058 23 360 16.1 30.6 0.00 0.03 0.03 47 1008.1
20260504221603 23 360 16.1 29.0 0.00 0.03 0.03 46 1008.1
20260504220052 24 360 11.3 29.0 0.00 0.03 0.03 46 1008.1
20260504214600 24 360 14.5 33.8 0.00 0.03 0.03 45 1008.2
20260504213102 24 360 14.5 29.0 0.00 0.03 0.03 47 1008.4
20260504211550 24 224 17.7 30.6 0.00 0.03 0.03 48 1008.4
20260504210049 24 259 12.9 22.5 0.00 0.03 0.03 49 1008.3
20260504204553 24 271 14.5 30.6 0.00 0.03 0.03 48 1008.4
20260504203052 23 262 9.7 29.0 0.00 0.03 0.03 53 1008.5
20260504201542 23 360 11.3 20.9 0.00 0.03 0.03 51 1008.7
20260504200050 23 360 9.7 20.9 0.00 0.03 0.03 53 1009.0
20260504194557 23 288 11.3 29.0 0.00 0.03 0.03 51 1009.3
20260504193048 23 360 16.1 25.7 0.00 0.03 0.03 53 1009.4
20260504191551 23 360 11.3 20.9 0.00 0.03 0.03 53 1009.6
20260504190047 22 360 11.3 22.5 0.00 0.03 0.03 56 1010.0
20260504184550 22 360 9.7 30.6 0.00 0.03 0.03 55 1010.0
20260504183054 21 264 12.9 30.6 0.00 0.03 0.03 58 1009.9
20260504181551 21 274 17.7 29.0 0.00 0.03 0.03 57 1009.8
20260504180052 21 276 17.7 30.6 0.00 0.03 0.03 58 1009.8
20260504174547 20 360 16.1 30.6 0.00 0.03 0.03 58 1009.8
20260504173049 20 360 9.7 22.5 0.00 0.03 0.03 59 1009.9
20260504171554 19 360 12.9 20.9 0.00 0.03 0.03 64 1009.9
20260504150107 16 360 8.0 17.7 0.00 0.03 0.03 70 1010.3
20260504081553 11 360 11.3 19.3 0.00 0.00 0.00 61 1011.9
20260504080110 11 360 9.7 19.3 0.00 0.00 0.00 61 1012.0